Guam Agana, GU

8:42 PM ChST on October 21, 2019 (GMT +1000)
Guam International

Weather History for PGUM - August, 2019

Change the Weather History Date:

Sunday, August 11, 2019

  Actual Average Record
Temperature  
Mean Temperature 86 °F -  
Max Temperature 90 °F 84 °F 90 °F (2012)
Min Temperature 82 °F 75 °F 73 °F (1997)
Cooling Degree Days 21    
Growing Degree Days 36 (Base 50)    
Moisture  
Dew Point 76 °F    
Average Humidity 75    
Maximum Humidity 89    
Minimum Humidity 58    
Precipitation  
Precipitation 0.00 in - - ()
Sea Level Pressure  
Sea Level Pressure 29.76 in    
Wind  
Wind Speed 12 mph (SW)    
Max Wind Speed 20 mph    
Max Gust Speed 30 mph    
Visibility 10 miles    
Events      
Averages and records for this station are not official NWS values.
T = Trace of Precipitation, MM = Missing Value Source: NWS Daily Summary

Daily Weather History Graph

Daily Weather History Graph

Search for Another Location

Airport or City:

Astronomy

Aug. 11, 2019 Rise Set
Actual Time 6:07 AM ChST 6:44 PM ChST
Civil Twilight 5:45 AM ChST 7:06 PM ChST
Nautical Twilight 5:19 AM ChST 7:32 PM ChST
Astronomical Twilight 4:52 AM ChST 7:59 PM ChST
Moon 3:27 PM ChST (8/11) 2:15 AM ChST (8/11)
Length of Visible Light 13h 21m
Length of Day
12h 37m
Waxing Gibbous, 82% of the Moon is Illuminated
Aug 11
Waxing Gibbous
Aug 15
Full
Aug 24
Last Quarter
Aug 30
New
Sep 6
First Quarter

Hourly Weather History & Observations

Time (ChST) Temp. Heat Index Dew Point Humidity Pressure Visibility Wind Dir Wind Speed Gust Speed Precip Events Conditions
12:54 AM 82.4 °F 92.4 °F 78.8 °F 89% 29.77 in 10.0 mi SW 8.1 mph - N/A   Clear
1:54 AM 82.4 °F 92.4 °F 78.8 °F 89% 29.76 in 10.0 mi SW 11.5 mph 21.9 mph N/A   Scattered Clouds
2:54 AM 82.0 °F 89.4 °F 75.9 °F 82% 29.73 in 10.0 mi WSW 11.5 mph - N/A   Partly Cloudy
3:54 AM 82.0 °F 89.4 °F 75.9 °F 82% 29.74 in 10.0 mi SW 10.4 mph - N/A   Partly Cloudy
4:54 AM 82.0 °F 89.4 °F 75.9 °F 82% 29.73 in 10.0 mi SW 12.7 mph - N/A   Partly Cloudy
5:54 AM 82.0 °F 88.6 °F 75.0 °F 79% 29.75 in 10.0 mi WSW 9.2 mph 20.7 mph N/A   Partly Cloudy
6:54 AM 82.9 °F 90.8 °F 75.9 °F 79% 29.77 in 10.0 mi SW 11.5 mph - N/A   Overcast
7:54 AM 84.0 °F 93.7 °F 77.0 °F 79% 29.78 in 10.0 mi SW 13.8 mph 20.7 mph N/A   Clear
8:54 AM 84.9 °F 95.3 °F 77.0 °F 77% 29.78 in 10.0 mi WSW 13.8 mph 23.0 mph N/A   Partly Cloudy
9:54 AM 87.1 °F 97.3 °F 75.9 °F 69% 29.78 in 10.0 mi SW 17.3 mph 28.8 mph N/A   Scattered Clouds
10:54 AM 87.1 °F 97.3 °F 75.9 °F 69% 29.78 in 10.0 mi SW 18.4 mph 29.9 mph N/A   Scattered Clouds
11:54 AM 90.0 °F 101.3 °F 75.9 °F 63% 29.78 in 10.0 mi SW 19.6 mph 28.8 mph N/A   Partly Cloudy
12:54 PM 88.0 °F 98.5 °F 75.9 °F 67% 29.77 in 10.0 mi SW 18.4 mph 24.2 mph N/A   Mostly Cloudy
1:54 PM 88.0 °F 97.5 °F 75.0 °F 65% 29.76 in 10.0 mi SW 18.4 mph 27.6 mph N/A   Mostly Cloudy
2:54 PM 89.1 °F 101.4 °F 77.0 °F 67% 29.73 in 10.0 mi SSW 12.7 mph 19.6 mph N/A   Mostly Cloudy
3:54 PM 88.0 °F 97.5 °F 75.0 °F 65% 29.71 in 10.0 mi SW 17.3 mph 24.2 mph N/A   Scattered Clouds
4:54 PM 86.0 °F 95.1 °F 75.0 °F 70% 29.72 in 10.0 mi SSW 11.5 mph 23.0 mph N/A   Partly Cloudy
5:54 PM 84.9 °F 94.1 °F 75.9 °F 74% 29.74 in 10.0 mi SSW 9.2 mph - N/A   Scattered Clouds
6:54 PM 82.9 °F 90.8 °F 75.9 °F 79% 29.76 in 10.0 mi South 9.2 mph - N/A   Partly Cloudy
7:54 PM 82.9 °F 90.8 °F 75.9 °F 79% 29.77 in 10.0 mi South 8.1 mph - N/A   Clear
8:54 PM 82.9 °F 90.8 °F 75.9 °F 79% 29.79 in 10.0 mi South 10.4 mph - N/A   Mostly Cloudy
9:54 PM 82.9 °F 90.8 °F 75.9 °F 79% 29.81 in 10.0 mi South 6.9 mph - N/A   Clear
10:54 PM 82.9 °F 91.8 °F 77.0 °F 82% 29.82 in 10.0 mi South 9.2 mph - N/A   Clear
11:54 PM 82.9 °F 91.8 °F 77.0 °F 82% 29.80 in 10.0 mi South 6.9 mph - N/A   Clear